| time (UTC) | temp F | wind direction | speed knots | gust knots | rain 1hr in | rain 24hr in | rain mn in | humidity % | barometer mb |
| 20260906104503 | 70 | 103 | 2.6 | 5.2 | 0.00 | 0.00 | 0.00 | 89 | 1015.5 |
| 20260906103603 | 70 | 82 | 2.6 | 5.2 | 0.00 | 0.00 | 0.00 | 89 | 1015.4 |
| 20260906102703 | 70 | 111 | 1.7 | 3.5 | 0.00 | 0.00 | 0.00 | 89 | 1015.2 |
| 20260906101804 | 70 | 101 | 2.6 | 4.3 | 0.00 | 0.00 | 0.00 | 90 | 1015.2 |
| 20260906100903 | 70 | 87 | 1.7 | 4.3 | 0.00 | 0.00 | 0.00 | 90 | 1015.2 |
| 20260906100003 | 70 | 77 | 1.7 | 3.5 | 0.00 | 0.00 | 0.00 | 90 | 1015.3 |
| 20260906095404 | 70 | 88 | 1.7 | 4.3 | 0.00 | 0.00 | 0.00 | 90 | 1015.2 |
| 20260906094718 | 70 | 84 | 1.7 | 4.3 | 0.00 | 0.00 | 0.00 | 90 | 1015.1 |
| 20260906093817 | 70 | 70 | 0.9 | 2.6 | 0.00 | 0.00 | 0.00 | 89 | 1015.1 |
| 20260906092703 | 70 | 92 | 0.9 | 5.2 | 0.00 | 0.00 | 0.00 | 89 | 1015.1 |
| 20260906091803 | 70 | 76 | 0.9 | 3.5 | 0.00 | 0.00 | 0.00 | 88 | 1015.0 |
| 20260906090903 | 71 | 86 | 0.9 | 3.5 | 0.00 | 0.00 | 0.00 | 88 | 1015.0 |
| 20260906090216 | 71 | 81 | 0.9 | 2.6 | 0.00 | 0.00 | 0.00 | 88 | 1015.0 |
| 20260906085403 | 71 | 93 | 0.9 | 3.5 | 0.00 | 0.00 | 0.00 | 88 | 1014.9 |
| 20260906084503 | 71 | 80 | 0.9 | 2.6 | 0.00 | 0.00 | 0.00 | 88 | 1015.0 |
| 20260906083603 | 71 | 72 | 0.9 | 2.6 | 0.00 | 0.00 | 0.00 | 88 | 1015.2 |
| 20260906082703 | 71 | 74 | 0.9 | 2.6 | 0.00 | 0.00 | 0.00 | 88 | 1015.1 |
| 20260906081803 | 71 | 27 | 0.0 | 0.9 | 0.00 | 0.00 | 0.00 | 88 | 1015.2 |
| 20260906080903 | 71 | 26 | 0.0 | 2.6 | 0.00 | 0.00 | 0.00 | 88 | 1015.2 |
| 20260906080003 | 71 | 25 | 0.9 | 1.7 | 0.00 | 0.00 | 0.00 | 88 | 1015.3 |
| 20260906075403 | 71 | 32 | 0.9 | 1.7 | 0.00 | 0.00 | 0.00 | 88 | 1015.3 |
| 20260906074503 | 71 | 33 | 2.6 | 4.3 | 0.00 | 0.00 | 0.00 | 88 | 1015.2 |
| 20260906073603 | 71 | 41 | 1.7 | 3.5 | 0.00 | 0.00 | 0.00 | 89 | 1015.2 |
| 20260906072703 | 71 | 49 | 1.7 | 3.5 | 0.00 | 0.00 | 0.00 | 89 | 1015.1 |
| 20260906071803 | 71 | 64 | 0.9 | 1.7 | 0.00 | 0.00 | 0.00 | 89 | 1015.0 |
| 20260906070903 | 71 | 48 | 0.9 | 2.6 | 0.00 | 0.00 | 0.00 | 88 | 1015.0 |
| 20260906070218 | 71 | 35 | 0.9 | 2.6 | 0.00 | 0.00 | 0.00 | 88 | 1015.1 |
| 20260906065403 | 72 | 32 | 0.9 | 2.6 | 0.00 | 0.00 | 0.00 | 88 | 1015.1 |
| 20260906064503 | 72 | 58 | 1.7 | 2.6 | 0.00 | 0.00 | 0.00 | 88 | 1015.1 |
| 20260906063603 | 72 | 43 | 1.7 | 4.3 | 0.00 | 0.00 | 0.00 | 88 | 1015.2 |
| 20260906062703 | 72 | 44 | 0.9 | 3.5 | 0.00 | 0.00 | 0.00 | 88 | 1015.2 |
| 20260906061803 | 72 | 52 | 1.7 | 3.5 | 0.00 | 0.00 | 0.00 | 87 | 1015.2 |
| 20260906061118 | 72 | 50 | 1.7 | 3.5 | 0.00 | 0.00 | 0.00 | 87 | 1015.1 |
| 20260906060003 | 72 | 50 | 2.6 | 4.3 | 0.00 | 0.00 | 0.00 | 86 | 1014.9 |
| 20260906055403 | 72 | 57 | 1.7 | 4.3 | 0.00 | 0.00 | 0.00 | 86 | 1014.9 |
| 20260906054503 | 73 | 79 | 2.6 | 6.1 | 0.00 | 0.00 | 0.00 | 85 | 1014.6 |
| 20260906053603 | 73 | 50 | 1.7 | 6.1 | 0.00 | 0.00 | 0.00 | 86 | 1014.5 |
| 20260906052703 | 73 | 70 | 3.5 | 6.1 | 0.00 | 0.00 | 0.00 | 86 | 1014.5 |
| 20260906051803 | 73 | 73 | 2.6 | 6.1 | 0.00 | 0.00 | 0.00 | 87 | 1014.5 |
| 20260906051118 | 73 | 70 | 2.6 | 5.2 | 0.00 | 0.00 | 0.00 | 88 | 1014.5 |
| 20260906050004 | 73 | 80 | 1.7 | 3.5 | 0.00 | 0.00 | 0.00 | 89 | 1014.4 |
| 20260906045403 | 73 | 69 | 1.7 | 4.3 | 0.00 | 0.00 | 0.00 | 89 | 1014.3 |
| 20260906044503 | 73 | 71 | 3.5 | 4.3 | 0.00 | 0.00 | 0.00 | 89 | 1014.2 |
| 20260906043603 | 73 | 68 | 3.5 | 6.1 | 0.00 | 0.00 | 0.00 | 90 | 1014.1 |
| 20260906042917 | 73 | 60 | 3.5 | 4.3 | 0.00 | 0.00 | 0.00 | 89 | 1014.1 |
| 20260906041803 | 73 | 59 | 3.5 | 5.2 | 0.00 | 0.00 | 0.00 | 90 | 1013.9 |
| 20260906040903 | 73 | 61 | 4.3 | 6.1 | 0.00 | 0.00 | 0.00 | 90 | 1013.8 |
| 20260906040003 | 73 | 62 | 4.3 | 7.0 | 0.00 | 0.00 | 0.00 | 90 | 1013.8 |
| 20260906035403 | 73 | 50 | 4.3 | 7.8 | 0.00 | 0.00 | 0.00 | 90 | 1013.8 |
| 20260906034503 | 73 | 46 | 3.5 | 5.2 | 0.00 | 0.00 | 0.00 | 90 | 1013.8 |
| 20260906033603 | 73 | 46 | 3.5 | 6.1 | 0.00 | 0.00 | 0.00 | 90 | 1013.8 |
| 20260906032703 | 73 | 53 | 4.3 | 8.7 | 0.00 | 0.00 | 0.00 | 90 | 1013.7 |
| 20260906031803 | 72 | 45 | 3.5 | 7.8 | 0.00 | 0.00 | 0.00 | 91 | 1013.7 |
| 20260906030903 | 72 | 40 | 5.2 | 6.1 | 0.00 | 0.00 | 0.00 | 90 | 1013.7 |
| 20260906030218 | 72 | 43 | 4.3 | 4.3 | 0.00 | 0.00 | 0.00 | 90 | 1013.6 |
| 20260906025403 | 72 | 38 | 6.1 | 6.1 | 0.00 | 0.00 | 0.00 | 89 | 1013.7 |
| 20260906024504 | 72 | 32 | 5.2 | 6.1 | 0.00 | 0.00 | 0.00 | 89 | 1013.8 |
| 20260906023603 | 72 | 33 | 5.2 | 6.1 | 0.00 | 0.00 | 0.00 | 88 | 1013.9 |
| 20260906022703 | 72 | 39 | 4.3 | 7.0 | 0.00 | 0.00 | 0.00 | 88 | 1013.9 |
| 20260906022017 | 72 | 33 | 1.7 | 6.1 | 0.00 | 0.00 | 0.00 | 87 | 1013.9 |
| 20260906020903 | 73 | 36 | 0.0 | 5.2 | 0.00 | 0.00 | 0.00 | 87 | 1014.1 |
| 20260906020003 | 73 | 0 | 0.0 | 0.0 | 0.00 | 0.00 | 0.00 | 86 | 1014.1 |
| 20260906015403 | 73 | 0 | 0.0 | 0.9 | 0.00 | 0.00 | 0.00 | 86 | 1014.0 |
| 20260906014503 | 72 | 37 | 1.7 | 6.1 | 0.00 | 0.00 | 0.00 | 87 | 1014.0 |
| 20260906013603 | 72 | 43 | 0.9 | 6.1 | 0.00 | 0.00 | 0.00 | 87 | 1013.8 |
| 20260906012703 | 72 | 0 | 0.0 | 0.9 | 0.00 | 0.00 | 0.00 | 87 | 1013.6 |
| 20260906011803 | 72 | 46 | 0.0 | 6.1 | 0.00 | 0.00 | 0.00 | 87 | 1013.4 |
| 20260906010903 | 72 | 43 | 0.9 | 7.0 | 0.00 | 0.00 | 0.00 | 87 | 1013.4 |
| 20260906010218 | 72 | 36 | 7.8 | 12.2 | 0.00 | 0.00 | 0.00 | 86 | 1013.4 |
| 20260906005403 | 72 | 31 | 7.8 | 12.2 | 0.00 | 0.00 | 0.00 | 86 | 1013.3 |
| 20260906004503 | 73 | 36 | 0.9 | 5.2 | 0.00 | 0.00 | 0.00 | 87 | 1013.3 |
| 20260906003603 | 73 | 39 | 0.0 | 7.8 | 0.00 | 0.00 | 0.00 | 87 | 1013.2 |
| 20260906002703 | 73 | 33 | 1.7 | 8.7 | 0.00 | 0.00 | 0.00 | 86 | 1013.2 |
| 20260906001803 | 74 | 25 | 2.6 | 8.7 | 0.00 | 0.00 | 0.00 | 86 | 1013.0 |
| 20260906000903 | 74 | 26 | 6.1 | 12.2 | 0.00 | 0.00 | 0.00 | 86 | 1013.0 |
| 20260906000003 | 74 | 26 | 7.0 | 10.4 | 0.00 | 0.00 | 0.00 | 85 | 1012.9 |
| 20260905235403 | 75 | 31 | 7.8 | 7.8 | 0.00 | 0.00 | 0.00 | 85 | 1012.8 |
| 20260905234503 | 75 | 28 | 11.3 | 10.4 | 0.00 | 0.00 | 0.00 | 85 | 1012.8 |
| 20260905233604 | 75 | 26 | 12.2 | 11.3 | 0.00 | 0.00 | 0.00 | 85 | 1012.8 |
| 20260905232703 | 75 | 31 | 12.2 | 12.2 | 0.00 | 0.00 | 0.00 | 85 | 1012.8 |
| 20260905231804 | 75 | 33 | 11.3 | 12.2 | 0.00 | 0.00 | 0.00 | 85 | 1012.7 |
| 20260905230903 | 75 | 25 | 11.3 | 13.0 | 0.00 | 0.00 | 0.00 | 85 | 1012.7 |
| 20260905230003 | 75 | 33 | 11.3 | 13.0 | 0.00 | 0.00 | 0.00 | 84 | 1012.7 |
| 20260905225403 | 75 | 33 | 10.4 | 10.4 | 0.00 | 0.00 | 0.00 | 84 | 1012.8 |
| 20260905224503 | 76 | 34 | 12.2 | 13.0 | 0.00 | 0.00 | 0.00 | 83 | 1012.7 |
| 20260905223603 | 76 | 28 | 13.9 | 13.9 | 0.00 | 0.00 | 0.00 | 83 | 1012.7 |
| 20260905222703 | 76 | 26 | 14.8 | 13.9 | 0.00 | 0.00 | 0.00 | 83 | 1012.7 |
| 20260905221803 | 76 | 26 | 14.8 | 19.1 | 0.00 | 0.00 | 0.00 | 83 | 1012.7 |
| 20260905220903 | 76 | 31 | 13.0 | 12.2 | 0.00 | 0.00 | 0.00 | 83 | 1012.7 |
| 20260905220003 | 77 | 35 | 13.9 | 13.9 | 0.00 | 0.00 | 0.00 | 82 | 1012.7 |
| 20260905215403 | 78 | 39 | 12.2 | 13.9 | 0.00 | 0.00 | 0.00 | 80 | 1012.7 |
| 20260905214503 | 78 | 30 | 13.0 | 14.8 | 0.00 | 0.00 | 0.00 | 80 | 1012.5 |
| 20260905213816 | 78 | 20 | 13.0 | 13.0 | 0.00 | 0.00 | 0.00 | 80 | 1012.5 |
| 20260905212703 | 78 | 26 | 12.2 | 12.2 | 0.00 | 0.00 | 0.00 | 80 | 1012.4 |
| 20260905211803 | 78 | 31 | 11.3 | 13.9 | 0.00 | 0.00 | 0.00 | 80 | 1012.3 |
| 20260905211117 | 78 | 26 | 11.3 | 13.0 | 0.00 | 0.00 | 0.00 | 80 | 1012.3 |
| 20260905210003 | 78 | 17 | 15.6 | 15.6 | 0.00 | 0.00 | 0.00 | 80 | 1012.4 |
| 20260905205403 | 79 | 22 | 13.9 | 13.0 | 0.00 | 0.00 | 0.00 | 79 | 1012.4 |
| 20260905204503 | 79 | 27 | 14.8 | 14.8 | 0.00 | 0.00 | 0.00 | 79 | 1012.4 |
| 20260905203603 | 80 | 22 | 13.9 | 13.0 | 0.00 | 0.00 | 0.00 | 78 | 1012.3 |
| 20260905202917 | 80 | 32 | 13.0 | 13.9 | 0.00 | 0.00 | 0.00 | 77 | 1012.4 |
| 20260905201803 | 81 | 22 | 13.0 | 13.0 | 0.00 | 0.00 | 0.00 | 75 | 1012.3 |
| 20260905200903 | 82 | 21 | 13.0 | 12.2 | 0.00 | 0.00 | 0.00 | 74 | 1012.3 |
| 20260905200003 | 82 | 26 | 12.2 | 11.3 | 0.00 | 0.00 | 0.00 | 75 | 1012.4 |
| 20260905195617 | 83 | 20 | 12.2 | 12.2 | 0.00 | 0.00 | 0.00 | 74 | 1012.3 |
| 20260905194503 | 83 | 20 | 13.0 | 13.0 | 0.00 | 0.00 | 0.00 | 74 | 1012.2 |
| 20260905193603 | 83 | 18 | 10.4 | 13.9 | 0.00 | 0.00 | 0.00 | 75 | 1012.4 |
| 20260905192703 | 83 | 30 | 11.3 | 12.2 | 0.00 | 0.00 | 0.00 | 73 | 1012.4 |
| 20260905191803 | 83 | 12 | 13.0 | 13.0 | 0.00 | 0.00 | 0.00 | 73 | 1012.4 |
| 20260905190903 | 84 | 22 | 12.2 | 13.0 | 0.00 | 0.00 | 0.00 | 73 | 1012.4 |
| 20260905190003 | 84 | 20 | 13.0 | 13.0 | 0.00 | 0.00 | 0.00 | 74 | 1012.4 |
| 20260905185403 | 83 | 30 | 13.0 | 13.0 | 0.00 | 0.00 | 0.00 | 75 | 1012.4 |
| 20260905184503 | 83 | 19 | 11.3 | 12.2 | 0.00 | 0.00 | 0.00 | 74 | 1012.4 |
| 20260905183603 | 84 | 38 | 9.6 | 10.4 | 0.00 | 0.00 | 0.00 | 73 | 1012.3 |
| 20260905182703 | 85 | 25 | 9.6 | 9.6 | 0.00 | 0.00 | 0.00 | 73 | 1012.3 |
| 20260905181803 | 84 | 47 | 8.7 | 9.6 | 0.00 | 0.00 | 0.00 | 74 | 1012.3 |
| 20260905180903 | 84 | 35 | 10.4 | 11.3 | 0.00 | 0.00 | 0.00 | 74 | 1012.3 |
| 20260905180004 | 84 | 27 | 9.6 | 9.6 | 0.00 | 0.00 | 0.00 | 74 | 1012.3 |
| 20260905175404 | 84 | 34 | 10.4 | 10.4 | 0.00 | 0.00 | 0.00 | 75 | 1012.3 |
| 20260905174503 | 85 | 25 | 8.7 | 11.3 | 0.00 | 0.00 | 0.00 | 75 | 1012.2 |
| 20260905173603 | 85 | 38 | 9.6 | 10.4 | 0.00 | 0.00 | 0.00 | 75 | 1012.3 |
| 20260905172918 | 85 | 37 | 9.6 | 10.4 | 0.00 | 0.00 | 0.00 | 76 | 1012.3 |
| 20260905171804 | 84 | 41 | 7.8 | 8.7 | 0.00 | 0.00 | 0.00 | 79 | 1012.3 |
| 20260905170903 | 84 | 48 | 7.0 | 7.8 | 0.00 | 0.00 | 0.00 | 79 | 1012.4 |
| 20260905170003 | 83 | 43 | 8.7 | 8.7 | 0.00 | 0.00 | 0.00 | 79 | 1012.5 |
| 20260905165403 | 84 | 37 | 8.7 | 8.7 | 0.00 | 0.00 | 0.00 | 79 | 1012.6 |
| 20260905164503 | 84 | 27 | 8.7 | 8.7 | 0.00 | 0.00 | 0.00 | 79 | 1012.6 |
| 20260905163603 | 84 | 13 | 7.8 | 8.7 | 0.00 | 0.00 | 0.00 | 78 | 1012.7 |
| 20260905162703 | 84 | 46 | 5.2 | 7.0 | 0.00 | 0.00 | 0.00 | 80 | 1012.6 |
| 20260905161803 | 84 | 47 | 6.1 | 10.4 | 0.00 | 0.00 | 0.00 | 82 | 1012.6 |
| 20260905160903 | 83 | 45 | 7.0 | 10.4 | 0.00 | 0.00 | 0.00 | 82 | 1012.6 |
| 20260905160003 | 82 | 41 | 6.1 | 7.8 | 0.00 | 0.00 | 0.00 | 82 | 1012.5 |
| 20260905155403 | 82 | 40 | 7.8 | 8.7 | 0.00 | 0.00 | 0.00 | 83 | 1012.4 |
| 20260905154503 | 83 | 46 | 7.8 | 8.7 | 0.00 | 0.00 | 0.00 | 82 | 1012.4 |
| 20260905153603 | 82 | 39 | 7.8 | 7.8 | 0.00 | 0.00 | 0.00 | 82 | 1012.4 |
| 20260905152703 | 82 | 34 | 7.8 | 8.7 | 0.00 | 0.00 | 0.00 | 83 | 1012.4 |
| 20260905151803 | 82 | 36 | 8.7 | 8.7 | 0.00 | 0.00 | 0.00 | 84 | 1012.3 |
| 20260905150903 | 82 | 26 | 7.0 | 7.0 | 0.00 | 0.00 | 0.00 | 84 | 1012.3 |
| 20260905150004 | 82 | 38 | 7.0 | 7.8 | 0.00 | 0.00 | 0.00 | 83 | 1012.1 |
| 20260905145403 | 82 | 46 | 7.0 | 7.0 | 0.00 | 0.00 | 0.00 | 82 | 1012.0 |
| 20260905144503 | 83 | 34 | 7.8 | 8.7 | 0.00 | 0.00 | 0.00 | 82 | 1011.8 |
| 20260905143603 | 83 | 33 | 5.2 | 5.2 | 0.00 | 0.00 | 0.00 | 83 | 1011.6 |
| 20260905142703 | 83 | 24 | 5.2 | 7.0 | 0.00 | 0.00 | 0.00 | 83 | 1011.6 |
| 20260905141804 | 82 | 42 | 4.3 | 5.2 | 0.00 | 0.00 | 0.00 | 84 | 1011.6 |
| 20260905140903 | 82 | 12 | 5.2 | 6.1 | 0.00 | 0.00 | 0.00 | 86 | 1011.9 |
| 20260905140004 | 81 | 4 | 6.1 | 6.1 | 0.00 | 0.00 | 0.00 | 87 | 1012.0 |
| 20260905135617 | 81 | 7 | 7.0 | 6.1 | 0.00 | 0.00 | 0.00 | 87 | 1012.1 |
| 20260905134503 | 80 | 2 | 5.2 | 7.0 | 0.00 | 0.00 | 0.00 | 89 | 1012.0 |
| 20260905133604 | 80 | 18 | 4.3 | 5.2 | 0.00 | 0.00 | 0.00 | 90 | 1011.8 |
| 20260905132703 | 79 | 340 | 3.5 | 3.5 | 0.00 | 0.00 | 0.00 | 90 | 1011.8 |
| 20260905131803 | 78 | 306 | 1.7 | 2.6 | 0.00 | 0.00 | 0.00 | 91 | 1011.7 |
| 20260905130903 | 78 | 224 | 0.0 | 0.9 | 0.00 | 0.00 | 0.00 | 91 | 1011.7 |
| 20260905130003 | 78 | 225 | 0.0 | 0.9 | 0.00 | 0.00 | 0.00 | 92 | 1011.5 |
| 20260905125403 | 77 | 225 | 0.9 | 0.9 | 0.00 | 0.00 | 0.00 | 91 | 1011.6 |
| 20260905124503 | 77 | 225 | 0.0 | 0.9 | 0.00 | 0.00 | 0.00 | 91 | 1011.4 |
| 20260905123603 | 77 | 225 | 0.0 | 0.9 | 0.00 | 0.00 | 0.00 | 92 | 1011.3 |
| 20260905122917 | 76 | 225 | 0.0 | 0.9 | 0.00 | 0.00 | 0.00 | 92 | 1011.3 |
| 20260905121804 | 76 | 225 | 0.0 | 0.9 | 0.00 | 0.00 | 0.00 | 92 | 1011.2 |
| 20260905120903 | 76 | 225 | 0.0 | 0.9 | 0.00 | 0.00 | 0.00 | 92 | 1011.0 |
| 20260905120003 | 76 | 226 | 0.9 | 2.6 | 0.00 | 0.00 | 0.00 | 92 | 1010.9 |
| 20260905115618 | 76 | 227 | 1.7 | 2.6 | 0.00 | 0.00 | 0.00 | 92 | 1010.9 |
| 20260905114504 | 76 | 48 | 0.9 | 2.6 | 0.00 | 0.00 | 0.00 | 92 | 1010.8 |
| 20260905113603 | 76 | 48 | 0.0 | 0.9 | 0.00 | 0.00 | 0.00 | 93 | 1010.8 |
| 20260905112703 | 76 | 48 | 0.0 | 0.9 | 0.00 | 0.00 | 0.00 | 93 | 1010.8 |
| 20260905111804 | 76 | 48 | 0.0 | 0.9 | 0.00 | 0.00 | 0.00 | 93 | 1010.8 |
| 20260905110903 | 75 | 0 | 0.0 | 0.0 | 0.00 | 0.00 | 0.00 | 93 | 1010.8 |
| 20260905110003 | 75 | 0 | 0.0 | 0.0 | 0.00 | 0.00 | 0.00 | 93 | 1010.8 |
| 20260905105403 | 75 | 48 | 0.0 | 0.9 | 0.00 | 0.00 | 0.00 | 93 | 1010.8 |